Flag for U.S.A. Weather past 2 weeks in Sunrise Manor, Nevada, U.S.A.

Now
56 °F

Clear.


Feels Like: 53 °F
Forecast: 46 / 72 °F
Wind: 10 mph from Northeast

Location: Nellis Air Force Base

Current Time: Jan 25, 2015 at 5:04:49 AM

Latest Report: Jan 25, 2015 at 3:58 AM


Visibility: 10 mi

Pressure: 30.21 "Hg

Humidity: 33%

Dew point: 27 °F

Location of Sunrise ManorLocation

Historic Weather in Sunrise Manor — Graph

°F

Sunrise Manor temperature yesterday

Maximum temperature yesterday: 68 °F (at 3:58 PM)
Minimum temperature yesterday: 48 °F (at 4:58 AM)
Average temperature yesterday: 56 °F

Past Weeks' High & Low Weather Summary

 TemperatureHumidityPressure
High68 °F (Jan 24, 3:58 PM)100% (Jan 11, 11:58 AM)30.43 "Hg (Jan 11, 11:58 AM)
Low32 °F (Jan 23, 6:58 AM)11% (Jan 22, 2:58 PM)29.94 "Hg (Jan 10, 2:58 PM)
Average50 °F52%30.20 "Hg
* Reported Jan 10 3:58 AM — Jan 25 3:58 AM, Sunrise Manor, Weather by CustomWeather, © 2014

Note: Actual official high and low records may vary slightly from our data, if they occured in-between our weather recording intervals... More about our weather records

Advertising

Sunrise Manor weather history for previous 24 hours

 ConditionsComfort  
Time TempWeatherWind HumidityBarometerVisibility
3:58 AM
Jan 25
56 °FClear.10 mph33%30.21 "Hg10 mi
2:58 AM55 °FClear.14 mph34%30.22 "Hg10 mi
1:58 AM54 °FClear.10 mph36%30.22 "Hg10 mi
12:58 AM56 °FClear.9 mph31%30.22 "Hg10 mi
11:58 PM
Jan 24
58 °FClear.10 mph26%30.22 "Hg10 mi
10:58 PM55 °FClear.3 mph29%30.23 "Hg10 mi
9:58 PM53 °FClear.6 mph31%30.22 "Hg10 mi
8:58 PM51 °FClear.5 mph34%30.22 "Hg10 mi
7:58 PM51 °FClear.6 mph35%30.23 "Hg10 mi
6:58 PM53 °FClear.10 mph33%30.21 "Hg10 mi
5:58 PM56 °FClear.10 mph29%30.20 "Hg10 mi
4:58 PM65 °FClear.1 mph20%30.17 "Hg10 mi
3:58 PM68 °FSunny.8 mph15%30.16 "Hg10 mi
2:58 PM68 °FSunny.13 mph17%30.18 "Hg10 mi
1:58 PM66 °FSunny.12 mph19%30.20 "Hg10 mi
12:58 PM65 °FSunny.8 mph20%30.24 "Hg10 mi
11:58 AM63 °FSunny.16 mph21%30.28 "Hg10 mi
10:58 AM60 °FSunny.17 mph26%30.33 "Hg10 mi
9:58 AM58 °FSunny.6 mph27%30.34 "Hg10 mi
8:58 AM56 °FSunny.5 mph30%30.34 "Hg10 mi
7:58 AM49 °FSunny.13 mph38%30.35 "Hg10 mi
6:58 AM49 °FSunny.7 mph38%30.36 "Hg10 mi
5:58 AM48 °FClear.14 mph40%30.35 "Hg10 mi
Weather by CustomWeather, © 2014

See weather overviewHow to use our weather pages